Hourly Weather Beclean

Today, 7 May, Friday

Time Temperature Precipitation Wind Pressure Humidity
00:00 +7°C° 0 mm 1 mps 728 mmHg 84%
01:00 +6°C° 0 mm 1 mps 728 mmHg 85%
02:00 +6°C° 0 mm 1 mps 728 mmHg 86%
03:00 +7°C° 0 mm 1 mps 728 mmHg 85%
04:00 +7°C° 0 mm 1 mps 727 mmHg 83%
05:00 +7°C° 0 mm 1 mps 727 mmHg 82%
06:00 +9°C° 0 mm 1 mps 727 mmHg 81%
07:00 +9°C° 0 mm 2 mps 727 mmHg 80%
08:00 +10°C° 0 mm 2 mps 727 mmHg 80%
09:00 +10°C° 0.2 mm 2 mps 727 mmHg 81%
10:00 +11°C° 0.2 mm 1 mps 726 mmHg 83%
11:00 +12°C° 0.2 mm 1 mps 726 mmHg 85%
12:00 +12°C° 0.5 mm 1 mps 726 mmHg 86%
13:00 +12°C° 0.5 mm 1 mps 726 mmHg 88%
14:00 +12°C° 0.5 mm 1 mps 725 mmHg 89%
15:00 +12°C° 0.4 mm 1 mps 725 mmHg 90%
16:00 +12°C° 0.4 mm 1 mps 724 mmHg 91%
17:00 +12°C° 0.4 mm 1 mps 724 mmHg 92%
18:00 +12°C° 1.4 mm 1 mps 724 mmHg 94%
19:00 +10°C° 1.4 mm 2 mps 724 mmHg 96%
20:00 +10°C° 1.4 mm 2 mps 725 mmHg 98%
21:00 +9°C° 1.2 mm 2 mps 725 mmHg 97%
22:00 +9°C° 1.2 mm 2 mps 726 mmHg 97%
23:00 +8°C° 1.2 mm 2 mps 727 mmHg 97%

Tomorrow, 8 May, Saturday

Time Temperature Precipitation Wind Pressure Humidity
00:00 +8°C° 0.1 mm 3 mps 727 mmHg 96%
01:00 +8°C° 0.1 mm 3 mps 727 mmHg 96%
02:00 +8°C° 0.1 mm 3 mps 728 mmHg 95%
03:00 +6°C° 0.1 mm 4 mps 728 mmHg 95%
04:00 +6°C° 0.1 mm 4 mps 729 mmHg 94%
05:00 +5°C° 0.1 mm 5 mps 729 mmHg 93%
06:00 +5°C° 0 mm 4 mps 730 mmHg 87%
07:00 +6°C° 0 mm 4 mps 731 mmHg 81%
08:00 +6°C° 0 mm 4 mps 732 mmHg 75%
09:00 +7°C° 0 mm 5 mps 732 mmHg 68%
10:00 +8°C° 0 mm 5 mps 732 mmHg 61%
11:00 +9°C° 0 mm 5 mps 733 mmHg 55%
12:00 +10°C° 0 mm 5 mps 733 mmHg 54%
13:00 +10°C° 0 mm 5 mps 733 mmHg 53%
14:00 +12°C° 0 mm 5 mps 733 mmHg 52%
15:00 +10°C° 0 mm 5 mps 733 mmHg 54%
16:00 +10°C° 0 mm 5 mps 733 mmHg 55%
17:00 +11°C° 0 mm 4 mps 733 mmHg 56%
18:00 +9°C° 0 mm 3 mps 733 mmHg 62%
19:00 +7°C° 0 mm 2 mps 734 mmHg 69%
20:00 +6°C° 0 mm 1 mps 734 mmHg 76%
21:00 +6°C° 0 mm 1 mps 734 mmHg 77%
22:00 +5°C° 0 mm 1 mps 735 mmHg 79%
23:00 +5°C° 0 mm 1 mps 735 mmHg 80%

Day after tomorrow, 9 May, Sunday

Time Temperature Precipitation Wind Pressure Humidity
00:00 +4°C° 0 mm 1 mps 736 mmHg 81%
01:00 +4°C° 0 mm 1 mps 736 mmHg 82%
02:00 +4°C° 0 mm 1 mps 736 mmHg 84%
03:00 +4°C° 0 mm 1 mps 736 mmHg 84%
04:00 +3°C° 0 mm 1 mps 737 mmHg 84%
05:00 +3°C° 0 mm 1 mps 737 mmHg 84%
06:00 +5°C° 0 mm 1 mps 737 mmHg 78%
07:00 +7°C° 0 mm 1 mps 737 mmHg 72%
08:00 +9°C° 0 mm 1 mps 738 mmHg 67%
09:00 +11°C° 0 mm 1 mps 738 mmHg 64%
10:00 +12°C° 0 mm 2 mps 737 mmHg 61%
11:00 +14°C° 0 mm 2 mps 737 mmHg 57%
12:00 +14°C° 0 mm 2 mps 737 mmHg 55%
13:00 +15°C° 0 mm 2 mps 737 mmHg 53%
14:00 +16°C° 0 mm 2 mps 737 mmHg 50%
15:00 +16°C° 0 mm 2 mps 736 mmHg 51%
16:00 +16°C° 0 mm 2 mps 736 mmHg 52%
17:00 +16°C° 0 mm 2 mps 736 mmHg 53%
18:00 +14°C° 0 mm 1 mps 736 mmHg 59%
19:00 +12°C° 0 mm 1 mps 736 mmHg 66%
20:00 +10°C° 0 mm 1 mps 735 mmHg 72%
21:00 +10°C° 0 mm 1 mps 735 mmHg 74%
22:00 +9°C° 0 mm 1 mps 736 mmHg 75%
23:00 +8°C° 0 mm 1 mps 736 mmHg 76%

10 May, Monday

Time Temperature Precipitation Wind Pressure Humidity
00:00 +8°C° 0 mm 1 mps 736 mmHg 77%
01:00 +8°C° 0 mm 1 mps 736 mmHg 77%
02:00 +7°C° 0 mm 1 mps 736 mmHg 78%
03:00 +7°C° 0 mm 1 mps 736 mmHg 78%
04:00 +7°C° 0 mm 1 mps 736 mmHg 78%
05:00 +7°C° 0 mm 1 mps 735 mmHg 77%
06:00 +9°C° 0 mm 1 mps 736 mmHg 73%
07:00 +10°C° 0 mm 2 mps 736 mmHg 68%
08:00 +13°C° 0 mm 2 mps 736 mmHg 64%
09:00 +14°C° 0 mm 2 mps 736 mmHg 61%
10:00 +16°C° 0 mm 3 mps 736 mmHg 59%
11:00 +18°C° 0 mm 3 mps 736 mmHg 56%
12:00 +19°C° 0 mm 4 mps 735 mmHg 55%
13:00 +19°C° 0 mm 4 mps 735 mmHg 54%
14:00 +20°C° 0 mm 4 mps 735 mmHg 53%
15:00 +20°C° 0 mm 3 mps 734 mmHg 55%
16:00 +20°C° 0 mm 3 mps 734 mmHg 58%
17:00 +21°C° 0 mm 2 mps 734 mmHg 61%
18:00 +19°C° 0 mm 2 mps 734 mmHg 67%
19:00 +16°C° 0 mm 2 mps 734 mmHg 73%
20:00 +14°C° 0 mm 1 mps 733 mmHg 79%
21:00 +14°C° 0 mm 1 mps 734 mmHg 79%
22:00 +13°C° 0 mm 1 mps 734 mmHg 79%
23:00 +12°C° 0 mm 1 mps 734 mmHg 80%

11 May, Tuesday

Time Temperature Precipitation Wind Pressure Humidity
00:00 +11°C° 0 mm 1 mps 734 mmHg 80%
01:00 +11°C° 0 mm 1 mps 734 mmHg 80%
02:00 +10°C° 0 mm 1 mps 734 mmHg 81%
03:00 +10°C° 0 mm 1 mps 734 mmHg 81%
04:00 +9°C° 0 mm 1 mps 734 mmHg 82%
05:00 +9°C° 0 mm 1 mps 734 mmHg 83%
06:00 +11°C° 0 mm 1 mps 734 mmHg 79%
07:00 +13°C° 0 mm 2 mps 734 mmHg 75%
08:00 +14°C° 0 mm 2 mps 734 mmHg 71%
09:00 +16°C° 0 mm 2 mps 733 mmHg 67%
10:00 +17°C° 0 mm 3 mps 733 mmHg 63%
11:00 +19°C° 0 mm 4 mps 733 mmHg 59%
12:00 +20°C° 0 mm 4 mps 733 mmHg 57%
13:00 +21°C° 0 mm 4 mps 732 mmHg 54%
14:00 +21°C° 0 mm 4 mps 732 mmHg 52%
15:00 +21°C° 0 mm 4 mps 732 mmHg 54%
16:00 +21°C° 0 mm 3 mps 731 mmHg 57%
17:00 +21°C° 0 mm 3 mps 731 mmHg 60%
18:00 +19°C° 0 mm 2 mps 731 mmHg 65%
19:00 +17°C° 0 mm 2 mps 730 mmHg 70%
20:00 +15°C° 0 mm 2 mps 730 mmHg 75%
21:00 +14°C° 0 mm 1 mps 730 mmHg 76%
22:00 +13°C° 0 mm 1 mps 730 mmHg 76%
23:00 +12°C° 0 mm 1 mps 730 mmHg 77%

12 May, Wednesday

Time Temperature Precipitation Wind Pressure Humidity
00:00 +12°C° 0 mm 1 mps 730 mmHg 78%
01:00 +10°C° 0 mm 2 mps 730 mmHg 79%
02:00 +10°C° 0 mm 2 mps 729 mmHg 80%
03:00 +9°C° 0 mm 2 mps 729 mmHg 81%
04:00 +10°C° 0 mm 1 mps 729 mmHg 83%
05:00 +9°C° 0 mm 1 mps 729 mmHg 84%
06:00 +10°C° 0 mm 2 mps 729 mmHg 78%
07:00 +13°C° 0 mm 2 mps 728 mmHg 71%
08:00 +15°C° 0 mm 2 mps 728 mmHg 65%
09:00 +17°C° 0 mm 3 mps 728 mmHg 60%
10:00 +18°C° 0 mm 4 mps 728 mmHg 56%
11:00 +20°C° 0 mm 5 mps 727 mmHg 51%
12:00 +21°C° 0 mm 5 mps 727 mmHg 51%
13:00 +22°C° 0 mm 5 mps 726 mmHg 50%
14:00 +23°C° 0 mm 5 mps 726 mmHg 50%
15:00 +23°C° 0 mm 5 mps 726 mmHg 54%
16:00 +22°C° 0 mm 4 mps 725 mmHg 57%
17:00 +22°C° 0 mm 4 mps 725 mmHg 60%
18:00 +20°C° 0 mm 3 mps 725 mmHg 66%
19:00 +18°C° 0 mm 2 mps 724 mmHg 71%
20:00 +16°C° 0 mm 1 mps 724 mmHg 76%
21:00 +15°C° 0.1 mm 2 mps 725 mmHg 80%
22:00 +13°C° 0.1 mm 3 mps 725 mmHg 85%
23:00 +13°C° 0.1 mm 3 mps 725 mmHg 89%
Show more

We Need Your Consent

Meteoprog and our Service Providers may store and access personal data such as cookies, device identifiers or other similar technologies on your device and process such data to personalise content and ads, as well as provide social media features and to analyse the traffic.

  • Store and/or access information on your device

    Cookies, device identifiers or other information can be stored or accessed on your device for the purposes indicated above.

  • Personalised ads and content, ad and content measurement, audience insights, and products development

    Ads and content can be personalised based on a profile. More data can be added to better personalise ads and content. Ad and content performance can be measured. Insights about the audience who saw the ads and content can be derived. Such data can be used to develop or improve user’s experience, systems and software.

By clicking ‘I Agree’ you will allow the use of indicated cookies, device identifiers, web beacons or other similar technologies. Your settings can be changed in the browser on your device.

For certain purposes, legitimate interests may be relied on, rather than consent. You can read more about this in our Privacy and Cookie Policy.